QPF
0.01 0.01 0.00 0.00 0.01 0.01 0.01 0.01 0.02 0.02 0.02 0.02 0.03 0.04 0.04 0.05 0.05 0.06 0.05 0.06 0.07 0.06 0.05 0.04 0.06 0.07 0.06 0.07 0.06 0.06 0.06 0.06 0.05 0.05 0.05 0.07 0.06 0.04 0.04 0.03 0.02 0.02 0.02
0.00 0.00 0.00 0.00 0.01 0.01 0.01 0.01 0.02 0.01 0.02 0.02 0.03 0.03 0.03 0.03 0.03 0.03 0.03 0.04 0.06 0.07 0.06 0.05 0.06 0.05 0.05 0.05 0.04 0.04 0.05 0.05 0.05 0.04 0.04 0.03 0.03 0.03 0.03 0.03 0.02 0.01 0.01
0.00 0.00 0.00 0.00 0.01 0.02 0.02 0.02 0.02 0.02 0.02 0.02 0.02 0.03 0.04 0.04 0.04 0.03 0.03 0.03 0.04 0.06 0.06 0.05 0.05 0.04 0.03 0.04 0.04 0.04 0.05 0.06 0.06 0.05 0.05 0.04 0.04 0.03 0.02 0.02 0.02 0.02 0.01
0.00 0.00 0.00 0.01 0.02 0.02 0.02 0.02 0.02 0.02 0.02 0.02 0.03 0.04 0.03 0.03 0.03 0.03 0.02 0.02 0.03 0.04 0.04 0.04 0.04 0.04 0.04 0.04 0.05 0.05 0.05 0.06 0.06 0.05 0.04 0.04 0.04 0.03 0.02 0.01 0.01 0.02 0.02
0.00 0.01 0.02 0.02 0.02 0.03 0.03 0.03 0.02 0.02 0.02 0.03 0.04 0.03 0.02 0.02 0.02 0.02 0.02 0.02 0.02 0.03 0.03 0.03 0.04 0.03 0.02 0.03 0.03 0.04 0.03 0.03 0.05 0.04 0.03 0.03 0.03 0.02 0.01 0.01 0.01 0.02 0.02
0.01 0.03 0.03 0.03 0.03 0.03 0.02 0.01 0.02 0.02 0.04 0.05 0.05 0.04 0.04 0.03 0.03 0.02 0.02 0.02 0.03 0.03 0.04 0.03 0.02 0.02 0.02 0.02 0.03 0.03 0.04 0.04 0.05 0.03 0.02 0.02 0.02 0.01 0.01 0.01 0.01 0.01 0.01
0.05 0.06 0.05 0.03 0.02 0.01 0.01 0.01 0.01 0.02 0.03 0.04 0.05 0.07 0.07 0.04 0.03 0.01 0.01 0.02 0.03 0.03 0.03 0.02 0.01 0.02 0.02 0.03 0.04 0.04 0.04 0.04 0.03 0.02 0.02 0.02 0.01 0.01 0.01 0.01 0.01 0.01 0.01
0.04 0.04 0.03 0.02 0.01 0.01 0.01 0.01 0.02 0.02 0.03 0.04 0.06 0.06 0.05 0.03 0.02 0.01 0.00 0.01 0.01 0.02 0.02 0.02 0.02 0.02 0.04 0.05 0.04 0.03 0.03 0.02 0.02 0.02 0.01 0.02 0.01 0.01 0.02 0.02 0.03 0.02 0.02
0.02 0.03 0.03 0.02 0.02 0.03 0.02 0.01 0.01 0.02 0.02 0.03 0.03 0.02 0.02 0.02 0.01 0.00 0.00 0.01 0.01 0.01 0.01 0.02 0.02 0.02 0.03 0.04 0.03 0.03 0.02 0.01 0.02 0.02 0.01 0.01 0.01 0.02 0.03 0.03 0.03 0.03 0.02
0.02 0.04 0.06 0.06 0.05 0.04 0.03 0.02 0.01 0.02 0.02 0.02 0.02 0.02 0.01 0.01 0.02 0.02 0.02 0.02 0.02 0.02 0.02 0.02 0.01 0.01 0.02 0.02 0.02 0.03 0.02 0.03 0.03 0.02 0.02 0.02 0.03 0.02 0.03 0.04 0.03 0.03 0.03
0.02 0.04 0.05 0.06 0.08 0.08 0.06 0.06 0.04 0.03 0.02 0.02 0.02 0.02 0.03 0.03 0.03 0.04 0.04 0.04 0.03 0.02 0.01 0.01 0.01 0.01 0.01 0.02 0.02 0.03 0.04 0.04 0.03 0.03 0.03 0.03 0.03 0.03 0.03 0.03 0.03 0.02 0.03
0.03 0.03 0.04 0.03 0.02 0.03 0.04 0.04 0.04 0.03 0.03 0.03 0.03 0.02 0.02 0.01 0.01 0.02 0.02 0.02 0.02 0.02 0.01 0.01 0.01 0.02 0.02 0.03 0.03 0.04 0.05 0.04 0.03 0.02 0.02 0.02 0.01 0.02 0.03 0.03 0.03 0.03 0.03
0.04 0.03 0.03 0.03 0.02 0.01 0.01 0.01 0.01 0.02 0.02 0.02 0.02 0.02 0.01 0.01 0.02 0.02 0.01 0.01 0.02 0.01 0.02 0.02 0.02 0.02 0.02 0.02 0.02 0.04 0.05 0.04 0.04 0.04 0.03 0.02 0.02 0.02 0.03 0.03 0.03 0.03 0.03
0.03 0.03 0.02 0.03 0.02 0.01 0.01 0.01 0.01 0.01 0.01 0.01 0.02 0.02 0.01 0.01 0.02 0.02 0.01 0.01 0.01 0.01 0.01 0.02 0.02 0.02 0.02 0.02 0.03 0.04 0.04 0.05 0.06 0.05 0.04 0.03 0.03 0.03 0.03 0.03 0.02 0.02 0.02
0.01 0.02 0.02 0.02 0.02 0.02 0.02 0.02 0.01 0.01 0.01 0.01 0.01 0.01 0.01 0.01 0.01 0.01 0.01 0.01 0.01 0.01 0.01 0.01 0.02 0.02 0.02 0.03 0.04 0.04 0.05 0.05 0.05 0.05 0.04 0.03 0.03 0.03 0.03 0.02 0.02 0.02 0.02
0.03 0.02 0.02 0.01 0.01 0.01 0.02 0.02 0.02 0.01 0.01 0.02 0.02 0.02 0.01 0.01 0.01 0.01 0.01 0.01 0.01 0.02 0.02 0.02 0.03 0.04 0.04 0.04 0.04 0.05 0.05 0.05 0.05 0.05 0.04 0.04 0.04 0.04 0.04 0.03 0.03 0.03 0.04
0.03 0.02 0.02 0.02 0.02 0.02 0.02 0.02 0.01 0.01 0.02 0.02 0.02 0.02 0.01 0.02 0.01 0.01 0.01 0.01 0.01 0.02 0.02 0.03 0.03 0.03 0.03 0.03 0.04 0.04 0.04 0.04 0.05 0.04 0.04 0.04 0.04 0.03 0.04 0.04 0.04 0.04 0.04
0.03 0.03 0.03 0.03 0.03 0.03 0.03 0.03 0.03 0.02 0.02 0.02 0.02 0.02 0.02 0.03 0.03 0.02 0.02 0.02 0.02 0.03 0.03 0.04 0.03 0.03 0.03 0.03 0.04 0.04 0.03 0.03 0.03 0.03 0.03 0.04 0.04 0.04 0.04 0.03 0.03 0.04 0.04
0.03 0.03 0.03 0.03 0.04 0.04 0.04 0.04 0.03 0.03 0.03 0.03 0.03 0.03 0.04 0.04 0.04 0.03 0.03 0.02 0.02 0.03 0.03 0.03 0.03 0.03 0.03 0.03 0.03 0.03 0.04 0.03 0.03 0.03 0.04 0.04 0.05 0.05 0.04 0.04 0.04 0.04 0.05
0.04 0.05 0.04 0.04 0.04 0.04 0.03 0.03 0.03 0.04 0.03 0.03 0.03 0.03 0.02 0.02 0.01 0.01 0.01 0.02 0.02 0.02 0.02 0.03 0.03 0.03 0.03 0.02 0.02 0.03 0.03 0.04 0.05 0.05 0.05 0.05 0.06 0.07 0.06 0.05 0.05 0.05 0.05
0.06 0.06 0.05 0.04 0.04 0.04 0.05 0.05 0.05 0.05 0.05 0.04 0.03 0.03 0.03 0.03 0.02 0.02 0.02 0.02 0.02 0.02 0.02 0.02 0.02 0.02 0.02 0.02 0.02 0.03 0.03 0.04 0.05 0.06 0.06 0.06 0.06 0.07 0.07 0.07 0.06 0.06 0.05
0.05 0.05 0.04 0.03 0.03 0.04 0.05 0.07 0.07 0.06 0.04 0.04 0.03 0.03 0.03 0.02 0.03 0.03 0.02 0.02 0.02 0.02 0.01 0.01 0.02 0.02 0.02 0.02 0.02 0.03 0.03 0.04 0.05 0.05 0.06 0.06 0.06 0.06 0.05 0.06 0.06 0.06 0.06
0.05 0.04 0.03 0.03 0.02 0.03 0.03 0.05 0.05 0.05 0.05 0.05 0.04 0.03 0.03 0.02 0.02 0.02 0.02 0.02 0.01 0.01 0.01 0.01 0.01 0.01 0.02 0.02 0.03 0.03 0.04 0.05 0.05 0.06 0.06 0.06 0.07 0.06 0.06 0.05 0.05 0.05 0.05
0.02 0.02 0.02 0.02 0.02 0.02 0.03 0.03 0.03 0.04 0.04 0.04 0.03 0.03 0.03 0.03 0.02 0.03 0.03 0.03 0.03 0.02 0.02 0.02 0.02 0.01 0.01 0.02 0.03 0.03 0.04 0.04 0.05 0.06 0.06 0.07 0.07 0.07 0.06 0.06 0.07 0.06 0.05
0.02 0.01 0.01 0.01 0.02 0.02 0.03 0.04 0.04 0.04 0.03 0.02 0.02 0.03 0.03 0.02 0.02 0.02 0.02 0.03 0.03 0.03 0.02 0.02 0.02 0.02 0.01 0.01 0.01 0.02 0.02 0.02 0.02 0.03 0.04 0.04 0.05 0.06 0.07 0.07 0.07 0.06 0.06
0.03 0.02 0.02 0.02 0.02 0.03 0.03 0.02 0.02 0.02 0.02 0.02 0.02 0.02 0.02 0.02 0.01 0.01 0.02 0.02 0.02 0.03 0.03 0.02 0.02 0.02 0.01 0.01 0.01 0.02 0.02 0.02 0.02 0.03 0.03 0.03 0.04 0.05 0.06 0.07 0.07 0.07 0.07
MSLP
1015.49 1015.74 1015.95 1016.07 1016.10 1016.05 1015.93 1015.78 1015.62 1015.48 1015.36 1015.28 1015.21 1015.13 1015.00 1014.81 1014.54 1014.19 1013.80 1013.38 1012.97 1012.61 1012.32 1012.08 1011.90 1011.73 1011.55 1011.30 1010.95 1010.50 1009.95 1009.31 1008.62 1007.93 1007.29 1006.72 1006.27 1005.93 1005.72 1005.63 1005.63 1005.72 1005.88
1015.85 1016.06 1016.21 1016.28 1016.28 1016.19 1016.05 1015.89 1015.72 1015.59 1015.49 1015.42 1015.37 1015.31 1015.21 1015.05 1014.80 1014.48 1014.10 1013.68 1013.27 1012.88 1012.54 1012.25 1012.00 1011.77 1011.52 1011.23 1010.86 1010.40 1009.86 1009.24 1008.58 1007.92 1007.28 1006.71 1006.23 1005.84 1005.55 1005.36 1005.25 1005.22 1005.27
1016.11 1016.25 1016.35 1016.37 1016.32 1016.20 1016.04 1015.87 1015.71 1015.59 1015.51 1015.47 1015.46 1015.44 1015.37 1015.25 1015.04 1014.75 1014.39 1013.99 1013.56 1013.15 1012.77 1012.43 1012.12 1011.83 1011.53 1011.19 1010.79 1010.33 1009.79 1009.20 1008.58 1007.95 1007.34 1006.78 1006.28 1005.85 1005.50 1005.21 1004.99 1004.83 1004.75
1016.25 1016.33 1016.37 1016.34 1016.24 1016.10 1015.92 1015.75 1015.60 1015.50 1015.45 1015.45 1015.47 1015.49 1015.47 1015.38 1015.21 1014.96 1014.62 1014.23 1013.80 1013.37 1012.96 1012.58 1012.22 1011.87 1011.51 1011.14 1010.72 1010.25 1009.72 1009.16 1008.58 1007.99 1007.42 1006.88 1006.37 1005.91 1005.49 1005.12 1004.79 1004.51 1004.29
1016.29 1016.33 1016.31 1016.23 1016.10 1015.92 1015.73 1015.56 1015.42 1015.34 1015.32 1015.36 1015.41 1015.46 1015.48 1015.42 1015.28 1015.05 1014.74 1014.36 1013.93 1013.49 1013.06 1012.64 1012.23 1011.84 1011.45 1011.04 1010.60 1010.12 1009.61 1009.08 1008.52 1007.97 1007.43 1006.90 1006.40 1005.92 1005.45 1005.01 1004.59 1004.20 1003.86
1016.30 1016.29 1016.23 1016.10 1015.93 1015.72 1015.52 1015.34 1015.21 1015.15 1015.15 1015.20 1015.28 1015.36 1015.39 1015.36 1015.24 1015.02 1014.72 1014.34 1013.92 1013.47 1013.02 1012.58 1012.14 1011.72 1011.29 1010.86 1010.40 1009.92 1009.41 1008.88 1008.35 1007.82 1007.30 1006.79 1006.28 1005.78 1005.28 1004.79 1004.29 1003.82 1003.39
1016.31 1016.27 1016.16 1016.00 1015.78 1015.54 1015.32 1015.12 1014.99 1014.93 1014.94 1015.00 1015.09 1015.17 1015.21 1015.18 1015.06 1014.85 1014.55 1014.18 1013.76 1013.31 1012.86 1012.40 1011.95 1011.50 1011.05 1010.59 1010.11 1009.61 1009.09 1008.56 1008.02 1007.49 1006.97 1006.45 1005.94 1005.43 1004.91 1004.38 1003.84 1003.32 1002.83
1016.37 1016.30 1016.16 1015.95 1015.69 1015.41 1015.15 1014.93 1014.78 1014.71 1014.71 1014.76 1014.84 1014.91 1014.94 1014.90 1014.78 1014.57 1014.27 1013.90 1013.49 1013.04 1012.58 1012.12 1011.66 1011.20 1010.72 1010.23 1009.72 1009.19 1008.64 1008.08 1007.52 1006.96 1006.41 1005.88 1005.35 1004.82 1004.28 1003.74 1003.19 1002.65 1002.15
1016.50 1016.41 1016.22 1015.97 1015.66 1015.34 1015.03 1014.78 1014.59 1014.49 1014.46 1014.49 1014.55 1014.60 1014.61 1014.56 1014.43 1014.21 1013.91 1013.54 1013.13 1012.69 1012.24 1011.77 1011.30 1010.82 1010.33 1009.81 1009.26 1008.68 1008.08 1007.47 1006.85 1006.25 1005.65 1005.08 1004.52 1003.97 1003.43 1002.89 1002.35 1001.83 1001.34
1016.68 1016.56 1016.34 1016.03 1015.67 1015.30 1014.94 1014.64 1014.42 1014.28 1014.22 1014.22 1014.24 1014.27 1014.26 1014.19 1014.04 1013.81 1013.51 1013.15 1012.74 1012.31 1011.85 1011.39 1010.91 1010.41 1009.89 1009.33 1008.73 1008.10 1007.44 1006.76 1006.08 1005.40 1004.75 1004.12 1003.53 1002.96 1002.41 1001.88 1001.38 1000.89 1000.46
1016.88 1016.73 1016.46 1016.11 1015.70 1015.27 1014.87 1014.52 1014.26 1014.08 1013.98 1013.95 1013.95 1013.95 1013.91 1013.82 1013.66 1013.43 1013.12 1012.76 1012.35 1011.91 1011.45 1010.98 1010.48 1009.96 1009.40 1008.80 1008.16 1007.47 1006.74 1005.99 1005.24 1004.49 1003.77 1003.09 1002.45 1001.86 1001.31 1000.80 1000.33 999.90 999.53
1017.05 1016.86 1016.55 1016.15 1015.70 1015.23 1014.78 1014.40 1014.10 1013.90 1013.77 1013.71 1013.69 1013.67 1013.61 1013.51 1013.33 1013.08 1012.76 1012.39 1011.97 1011.52 1011.04 1010.55 1010.03 1009.48 1008.89 1008.25 1007.56 1006.81 1006.02 1005.21 1004.39 1003.57 1002.79 1002.06 1001.38 1000.76 1000.20 999.71 999.28 998.91 998.60
1017.15 1016.92 1016.57 1016.13 1015.65 1015.15 1014.68 1014.28 1013.96 1013.74 1013.60 1013.53 1013.49 1013.45 1013.38 1013.25 1013.06 1012.79 1012.45 1012.05 1011.60 1011.13 1010.62 1010.10 1009.55 1008.96 1008.34 1007.66 1006.93 1006.14 1005.31 1004.45 1003.57 1002.71 1001.87 1001.09 1000.37 999.72 999.16 998.68 998.28 997.95 997.71
1017.14 1016.87 1016.50 1016.04 1015.54 1015.03 1014.57 1014.17 1013.85 1013.63 1013.49 1013.41 1013.36 1013.31 1013.22 1013.07 1012.85 1012.55 1012.18 1011.74 1011.26 1010.74 1010.20 1009.63 1009.04 1008.42 1007.76 1007.06 1006.30 1005.49 1004.63 1003.74 1002.83 1001.92 1001.05 1000.22 999.47 998.80 998.21 997.73 997.34 997.05 996.85
1017.02 1016.73 1016.34 1015.88 1015.39 1014.90 1014.45 1014.08 1013.79 1013.59 1013.46 1013.39 1013.33 1013.27 1013.16 1012.98 1012.72 1012.38 1011.96 1011.48 1010.94 1010.37 1009.77 1009.16 1008.53 1007.88 1007.20 1006.48 1005.71 1004.88 1004.02 1003.11 1002.19 1001.26 1000.35 999.49 998.69 997.98 997.37 996.86 996.47 996.19 996.02
1016.81 1016.51 1016.12 1015.68 1015.21 1014.77 1014.37 1014.04 1013.79 1013.62 1013.52 1013.45 1013.40 1013.32 1013.18 1012.97 1012.67 1012.28 1011.81 1011.27 1010.67 1010.04 1009.40 1008.74 1008.08 1007.40 1006.70 1005.97 1005.20 1004.38 1003.52 1002.61 1001.68 1000.73 999.79 998.89 998.05 997.29 996.63 996.08 995.65 995.36 995.19
1016.56 1016.26 1015.89 1015.48 1015.06 1014.67 1014.33 1014.06 1013.86 1013.73 1013.65 1013.60 1013.54 1013.44 1013.28 1013.03 1012.69 1012.25 1011.72 1011.13 1010.49 1009.81 1009.12 1008.43 1007.74 1007.05 1006.34 1005.62 1004.85 1004.04 1003.19 1002.28 1001.33 1000.36 999.39 998.44 997.54 996.71 995.98 995.37 994.90 994.56 994.38
1016.31 1016.02 1015.68 1015.32 1014.96 1014.64 1014.36 1014.15 1014.00 1013.91 1013.86 1013.81 1013.75 1013.63 1013.44 1013.15 1012.77 1012.29 1011.72 1011.09 1010.41 1009.71 1009.00 1008.29 1007.59 1006.89 1006.19 1005.47 1004.72 1003.92 1003.06 1002.15 1001.18 1000.18 999.16 998.14 997.17 996.26 995.45 994.76 994.22 993.84 993.62
1016.10 1015.83 1015.53 1015.22 1014.92 1014.66 1014.45 1014.30 1014.20 1014.14 1014.10 1014.05 1013.97 1013.84 1013.62 1013.31 1012.90 1012.39 1011.81 1011.16 1010.48 1009.77 1009.06 1008.36 1007.66 1006.98 1006.29 1005.58 1004.84 1004.04 1003.17 1002.24 1001.25 1000.20 999.11 998.02 996.96 995.97 995.07 994.30 993.68 993.23 992.98
1015.95 1015.71 1015.45 1015.19 1014.96 1014.75 1014.60 1014.49 1014.42 1014.37 1014.33 1014.28 1014.19 1014.03 1013.79 1013.47 1013.04 1012.54 1011.96 1011.33 1010.66 1009.98 1009.30 1008.62 1007.96 1007.30 1006.63 1005.94 1005.20 1004.39 1003.51 1002.55 1001.52 1000.41 999.26 998.09 996.95 995.86 994.88 994.02 993.33 992.83 992.53
1015.87 1015.66 1015.44 1015.23 1015.04 1014.88 1014.76 1014.68 1014.62 1014.58 1014.53 1014.46 1014.35 1014.18 1013.92 1013.59 1013.18 1012.70 1012.15 1011.56 1010.94 1010.31 1009.68 1009.05 1008.43 1007.81 1007.17 1006.49 1005.75 1004.94 1004.04 1003.04 1001.96 1000.80 999.59 998.35 997.13 995.97 994.91 993.99 993.24 992.69 992.35
1015.85 1015.67 1015.48 1015.31 1015.16 1015.03 1014.93 1014.85 1014.79 1014.73 1014.67 1014.57 1014.44 1014.24 1013.99 1013.67 1013.28 1012.83 1012.33 1011.80 1011.25 1010.69 1010.13 1009.57 1009.00 1008.42 1007.81 1007.14 1006.41 1005.59 1004.67 1003.65 1002.52 1001.32 1000.06 998.77 997.51 996.30 995.19 994.23 993.44 992.85 992.49
1015.88 1015.73 1015.57 1015.43 1015.29 1015.17 1015.07 1014.98 1014.90 1014.81 1014.72 1014.59 1014.43 1014.23 1013.97 1013.67 1013.31 1012.91 1012.48 1012.02 1011.54 1011.06 1010.57 1010.08 1009.57 1009.03 1008.45 1007.80 1007.07 1006.25 1005.32 1004.28 1003.14 1001.91 1000.63 999.32 998.04 996.81 995.69 994.72 993.92 993.32 992.94
1015.95 1015.81 1015.68 1015.55 1015.42 1015.29 1015.18 1015.06 1014.95 1014.83 1014.70 1014.54 1014.36 1014.15 1013.89 1013.61 1013.28 1012.94 1012.56 1012.17 1011.77 1011.36 1010.94 1010.50 1010.04 1009.55 1008.99 1008.36 1007.65 1006.83 1005.90 1004.86 1003.72 1002.50 1001.23 999.94 998.67 997.46 996.36 995.40 994.62 994.02 993.64
1016.03 1015.91 1015.78 1015.65 1015.51 1015.38 1015.24 1015.09 1014.95 1014.79 1014.63 1014.45 1014.25 1014.02 1013.78 1013.51 1013.22 1012.92 1012.59 1012.26 1011.92 1011.56 1011.20 1010.81 1010.39 1009.92 1009.40 1008.79 1008.09 1007.28 1006.37 1005.35 1004.24 1003.05 1001.82 1000.57 999.35 998.19 997.13 996.21 995.45 994.87 994.49
1016.09 1015.98 1015.85 1015.71 1015.56 1015.40 1015.24 1015.07 1014.90 1014.72 1014.53 1014.33 1014.12 1013.90 1013.67 1013.42 1013.16 1012.88 1012.60 1012.31 1012.01 1011.69 1011.36 1011.00 1010.61 1010.17 1009.66 1009.07 1008.39 1007.61 1006.72 1005.74 1004.68 1003.54 1002.37 1001.18 1000.02 998.93 997.93 997.05 996.33 995.77 995.39
Thickness
5786 5782 5780 5778 5776 5773 5770 5768 5767 5765 5763 5761 5759 5757 5755 5754 5753 5751 5750 5749 5747 5746 5745 5743 5742 5742 5742 5743 5741 5739 5737 5733 5728 5729 5728 5725 5720 5718 5715 5713 5711 5708 5706
5787 5783 5779 5777 5775 5772 5770 5768 5766 5763 5761 5759 5757 5756 5754 5753 5752 5750 5748 5747 5745 5743 5742 5741 5740 5740 5738 5738 5737 5736 5734 5732 5728 5722 5722 5721 5717 5715 5712 5709 5708 5707 5704
5787 5782 5779 5776 5773 5770 5768 5766 5764 5761 5759 5757 5755 5754 5752 5751 5750 5748 5746 5744 5743 5742 5741 5739 5738 5736 5734 5734 5732 5732 5731 5730 5726 5723 5720 5718 5715 5712 5708 5706 5704 5702 5701
5786 5782 5777 5775 5773 5770 5767 5765 5762 5759 5757 5754 5753 5752 5750 5749 5748 5746 5744 5741 5740 5740 5739 5737 5736 5734 5732 5730 5729 5727 5726 5725 5722 5720 5718 5714 5711 5708 5705 5702 5700 5699 5698
5782 5779 5776 5774 5771 5768 5765 5762 5760 5757 5755 5752 5750 5748 5747 5745 5745 5743 5741 5739 5737 5736 5735 5734 5733 5731 5728 5726 5726 5724 5722 5720 5718 5715 5713 5710 5707 5703 5701 5700 5697 5695 5694
5778 5775 5773 5769 5766 5764 5761 5759 5756 5753 5751 5748 5746 5745 5743 5743 5740 5736 5734 5734 5733 5731 5730 5729 5729 5726 5723 5720 5718 5716 5714 5713 5712 5710 5709 5705 5702 5701 5698 5696 5694 5691 5688
5773 5771 5768 5764 5761 5759 5758 5755 5751 5748 5746 5744 5742 5740 5739 5736 5733 5730 5727 5728 5728 5726 5725 5724 5725 5725 5720 5718 5713 5709 5707 5705 5703 5703 5703 5701 5700 5698 5694 5691 5689 5688 5686
5767 5764 5763 5759 5757 5755 5751 5749 5746 5743 5741 5738 5736 5735 5733 5731 5727 5723 5721 5722 5723 5722 5721 5719 5717 5716 5714 5711 5710 5708 5705 5703 5700 5697 5697 5697 5696 5693 5690 5688 5685 5682 5681
5761 5758 5757 5754 5751 5748 5745 5742 5740 5738 5734 5732 5731 5729 5727 5725 5721 5717 5714 5717 5717 5717 5716 5714 5712 5710 5706 5702 5702 5701 5700 5700 5696 5694 5692 5690 5688 5685 5682 5680 5678 5675 5675
5754 5753 5751 5748 5745 5742 5740 5736 5735 5733 5729 5727 5725 5723 5721 5719 5715 5711 5707 5712 5712 5712 5711 5709 5705 5702 5698 5694 5695 5695 5693 5693 5692 5689 5685 5683 5681 5679 5676 5674 5673 5671 5671
5748 5746 5743 5741 5738 5736 5734 5731 5728 5726 5724 5721 5719 5718 5715 5713 5708 5704 5701 5703 5704 5704 5704 5703 5701 5694 5690 5687 5685 5687 5687 5685 5684 5683 5681 5679 5677 5675 5673 5671 5669 5667 5667
5739 5736 5734 5733 5732 5731 5726 5724 5721 5718 5716 5714 5712 5711 5710 5707 5703 5699 5694 5692 5691 5693 5694 5695 5693 5687 5683 5679 5678 5677 5675 5673 5676 5676 5674 5673 5671 5670 5669 5667 5664 5662 5661
5728 5726 5725 5724 5723 5722 5719 5716 5714 5711 5711 5708 5706 5704 5702 5701 5697 5692 5687 5684 5682 5682 5685 5683 5680 5677 5674 5673 5670 5669 5667 5668 5668 5667 5666 5665 5665 5664 5662 5659 5657 5655 5653
5717 5717 5716 5716 5715 5712 5710 5709 5707 5705 5702 5700 5698 5696 5695 5693 5690 5686 5683 5680 5676 5675 5675 5673 5670 5668 5667 5665 5664 5663 5662 5661 5660 5658 5658 5658 5657 5655 5654 5652 5650 5649 5646
5708 5708 5708 5708 5707 5703 5701 5699 5697 5694 5692 5689 5688 5686 5684 5681 5677 5671 5671 5671 5670 5668 5665 5665 5666 5665 5663 5662 5661 5658 5656 5653 5651 5650 5650 5649 5648 5646 5645 5644 5642 5640 5638
5697 5698 5700 5700 5698 5696 5693 5689 5684 5682 5678 5675 5672 5671 5671 5666 5662 5660 5658 5656 5655 5653 5654 5658 5656 5655 5654 5653 5652 5650 5648 5646 5645 5643 5641 5640 5640 5638 5637 5636 5633 5632 5631
5686 5687 5690 5690 5688 5686 5684 5680 5677 5672 5668 5665 5662 5659 5656 5653 5651 5649 5647 5646 5645 5643 5647 5648 5647 5645 5644 5644 5643 5641 5640 5639 5637 5635 5634 5633 5631 5630 5628 5627 5626 5625 5623
5677 5677 5678 5679 5678 5675 5672 5670 5669 5667 5663 5660 5655 5650 5646 5643 5641 5639 5637 5636 5639 5638 5640 5639 5637 5635 5634 5634 5633 5632 5630 5629 5628 5626 5625 5624 5623 5621 5620 5619 5618 5616 5615
5669 5669 5668 5667 5666 5664 5661 5660 5658 5656 5653 5652 5649 5644 5638 5635 5632 5630 5627 5631 5632 5632 5631 5629 5627 5625 5624 5623 5622 5621 5620 5619 5618 5616 5616 5614 5614 5612 5612 5611 5610 5607 5604
5659 5655 5655 5657 5656 5653 5651 5649 5648 5645 5643 5641 5639 5636 5633 5630 5628 5625 5622 5622 5621 5621 5620 5619 5617 5615 5613 5612 5611 5610 5610 5609 5608 5607 5606 5605 5605 5604 5603 5602 5602 5600 5599
5650 5648 5644 5647 5645 5643 5641 5639 5636 5634 5631 5630 5627 5624 5618 5621 5621 5619 5617 5613 5611 5610 5608 5606 5604 5603 5601 5600 5600 5599 5598 5598 5597 5596 5596 5596 5595 5595 5594 5594 5593 5593 5592
5641 5640 5638 5636 5634 5632 5630 5628 5626 5623 5621 5618 5616 5615 5608 5610 5610 5608 5605 5602 5600 5597 5596 5593 5592 5591 5589 5587 5586 5585 5585 5585 5584 5583 5582 5583 5584 5584 5584 5584 5584 5584 5583
5632 5631 5629 5627 5625 5620 5620 5619 5616 5612 5609 5607 5605 5603 5601 5600 5599 5596 5593 5591 5589 5587 5584 5582 5580 5579 5576 5574 5573 5573 5571 5570 5568 5568 5569 5571 5572 5572 5573 5573 5573 5574 5574
5623 5622 5620 5617 5615 5613 5611 5608 5605 5602 5599 5596 5594 5592 5591 5588 5587 5585 5583 5580 5578 5575 5572 5570 5568 5566 5563 5561 5561 5560 5557 5553 5553 5555 5556 5557 5560 5562 5563 5563 5564 5564 5565
5613 5611 5609 5607 5605 5602 5600 5597 5595 5592 5589 5586 5584 5581 5579 5578 5576 5574 5571 5568 5566 5563 5561 5558 5556 5554 5552 5550 5549 5546 5542 5541 5541 5542 5544 5547 5550 5552 5553 5554 5555 5555 5554
5602 5601 5599 5596 5594 5591 5589 5586 5584 5581 5578 5576 5573 5570 5568 5565 5564 5562 5559 5556 5554 5552 5549 5548 5546 5543 5541 5539 5536 5533 5531 5531 5531 5531 5532 5536 5540 5542 5543 5544 5545 5545 5545